Wind_Speed
3 5 7 7 8 7 7 6 6 7 6 5 7 11 11 15 14 19 22 20 10 26 25 28 33 28 29 30 32 40 34 21 4 23 44 41 44 44 41 36 32 31 24
5 4 5 9 8 9 8 8 8 8 9 7 10 8 8 10 10 18 17 18 13 14 17 22 26 31 26 25 28 39 42 26 12 9 36 39 34 34 32 34 36 32 27
4 5 8 14 14 11 10 10 9 11 12 12 8 8 9 5 11 16 14 15 14 11 13 22 22 28 31 27 28 34 39 30 21 5 20 42 41 43 31 30 36 34 26
6 5 7 12 14 11 10 10 11 11 12 12 11 12 10 11 16 12 13 14 16 18 14 10 21 23 28 28 27 26 32 28 24 12 11 29 46 40 41 33 38 36 30
3 5 11 7 8 13 13 14 13 14 11 14 13 13 13 12 13 12 12 15 22 15 15 10 7 16 22 25 27 28 32 28 25 18 9 25 33 37 43 35 38 37 32
7 11 11 9 10 13 15 15 14 14 13 14 13 18 17 17 16 10 13 14 17 14 14 10 12 16 17 22 25 24 28 30 23 22 13 25 30 31 37 40 38 35 31
8 5 4 10 14 13 18 16 14 14 14 9 10 15 14 12 11 14 16 19 17 15 11 16 12 23 18 17 21 25 26 27 25 19 9 16 26 27 37 41 39 35 30
0 1 10 11 19 22 20 16 14 13 13 13 15 15 18 17 17 16 20 20 17 13 9 7 3 18 15 19 20 24 24 26 25 17 8 7 23 23 29 37 39 36 34
12 10 13 20 19 16 16 16 19 19 17 17 18 20 21 23 21 24 23 19 23 18 15 8 10 16 13 22 12 22 17 21 23 20 11 2 12 21 24 33 36 36 35
15 22 23 22 18 22 18 23 23 24 25 26 27 28 27 24 25 26 27 19 27 23 21 18 17 16 18 15 21 22 19 17 20 20 15 6 9 16 21 30 33 33 36
17 19 25 29 27 27 30 34 31 32 31 30 32 33 32 31 29 28 27 28 21 30 25 20 19 19 20 24 22 20 24 26 18 19 14 10 5 13 21 31 31 32 34
20 20 26 25 29 30 33 33 30 31 34 33 33 35 35 34 38 37 33 32 30 32 31 25 22 16 37 30 24 21 23 27 21 16 17 9 8 8 15 27 33 32 35
22 27 31 37 30 26 25 26 27 32 33 38 38 42 38 39 38 42 41 41 38 38 37 34 30 19 23 39 27 22 25 26 21 18 14 15 11 10 12 14 25 37 39
29 35 40 40 36 35 39 41 40 43 47 42 40 43 44 40 43 42 43 44 42 47 42 42 38 36 44 39 29 24 24 24 26 20 20 16 17 13 11 16 18 22 32
44 44 38 35 37 31 39 51 52 54 49 52 56 53 51 49 50 51 47 43 40 47 49 48 47 48 43 42 37 30 29 30 29 26 25 23 20 18 17 13 19 24 24
46 44 43 42 40 37 40 42 38 49 53 46 51 53 52 63 60 58 61 59 59 54 55 56 51 52 52 46 44 46 43 40 34 32 28 25 26 24 23 21 18 20 25
35 35 38 41 42 46 47 46 45 48 48 48 47 50 48 42 50 68 71 71 70 68 68 62 57 59 58 52 50 53 48 45 43 38 35 31 28 29 29 27 25 22 21
35 43 44 46 47 48 51 52 53 58 58 50 46 47 49 56 59 59 60 60 62 65 72 73 72 64 60 56 58 54 57 53 52 50 48 38 31 32 33 33 32 29 26
33 37 42 42 40 42 46 46 47 46 45 47 51 50 49 51 46 42 46 53 57 58 59 62 72 78 76 76 75 69 61 58 59 56 55 50 44 39 38 35 36 36 33
31 40 46 47 52 55 48 39 37 35 33 33 32 32 31 32 32 33 36 38 44 49 53 57 61 67 73 76 74 72 72 67 62 65 58 55 54 48 41 39 40 40 40
33 40 47 42 51 54 56 46 38 36 34 33 34 35 35 37 37 39 42 44 47 49 51 52 53 56 60 67 73 75 73 80 67 74 69 60 60 59 55 50 46 40 44
38 44 45 46 46 47 53 56 52 44 41 39 40 40 41 42 41 44 44 46 48 53 56 57 59 59 61 62 63 68 73 72 77 81 76 74 67 65 63 60 54 53 46
39 43 43 43 48 46 52 57 62 63 50 47 47 49 48 52 55 55 58 58 60 62 59 61 63 65 66 68 70 71 69 74 77 85 86 80 80 76 74 68 67 61 57
37 42 43 48 53 56 57 57 68 64 64 51 53 54 57 57 62 63 66 70 72 73 71 71 71 73 72 73 74 77 78 77 78 82 84 84 84 81 80 78 74 70 66
38 44 50 57 63 66 64 67 68 76 64 57 50 53 56 58 63 68 73 77 80 82 81 82 83 81 79 75 77 79 82 84 86 84 88 87 93 89 87 80 81 79 74
47 51 59 65 70 75 74 70 72 84 72 63 57 56 60 68 71 75 79 83 81 79 79 80 81 84 85 82 80 78 83 85 90 92 92 87 93 99 95 89 87 85 84
Wind_Direction
35 26 32 19 356 357 358 2 340 331 340 360 22 13 17 34 353 10 14 20 359 12 14 21 20 26 29 14 6 13 13 17 353 201 192 204 208 215 215 212 215 225 197
305 327 4 355 338 336 340 1 4 336 332 339 339 342 4 23 319 2 5 8 33 332 346 13 22 15 13 22 6 11 5 10 8 213 204 203 212 211 209 214 212 201 202
290 318 343 337 333 329 321 315 321 332 348 328 331 334 341 333 332 349 358 9 12 360 355 0 15 9 12 12 7 2 0 1 359 294 212 206 211 204 214 199 197 200 194
342 336 311 313 316 330 330 325 317 320 315 324 329 334 337 348 324 336 6 15 2 10 14 352 2 357 4 10 13 357 4 0 0 342 237 205 210 214 211 204 195 197 198
11 329 288 317 308 298 313 321 307 324 299 306 319 313 316 320 315 330 3 1 357 356 8 23 321 356 360 357 4 11 4 1 358 355 282 206 205 204 207 207 195 196 201
288 298 293 310 307 300 310 306 302 298 303 316 332 328 304 311 316 303 323 340 345 348 337 7 354 344 348 353 359 5 2 7 2 356 328 201 198 197 197 203 198 201 205
279 259 8 339 333 324 334 319 314 307 286 275 274 289 287 294 312 335 309 300 328 334 338 28 181 315 308 336 344 354 355 2 7 1 340 200 195 199 195 195 200 210 215
285 317 315 320 322 305 318 319 310 313 290 274 272 281 282 281 285 287 303 317 324 322 334 356 356 350 315 321 321 329 341 351 1 2 354 202 206 208 207 201 202 207 212
305 282 264 267 275 281 300 309 303 297 289 290 285 279 282 277 274 285 293 306 310 306 300 316 326 338 359 293 311 292 311 335 344 359 356 262 216 216 211 206 202 207 211
247 259 257 259 265 273 287 296 296 289 288 291 290 285 283 279 279 284 289 277 269 282 285 292 304 313 302 300 289 293 302 323 330 346 358 341 232 225 221 210 208 206 205
303 280 286 273 277 277 282 291 285 272 277 280 280 280 278 277 283 281 278 280 273 279 284 288 292 310 298 300 301 296 296 299 308 320 335 341 285 231 226 220 218 207 203
294 306 297 291 277 285 278 276 275 276 271 270 270 277 273 275 275 272 266 269 281 281 286 284 273 264 285 291 286 288 281 297 301 297 307 332 306 258 233 225 221 217 213
277 276 294 299 294 284 278 273 270 267 270 263 266 267 269 277 266 264 264 260 268 267 280 280 271 287 254 275 281 280 281 290 294 291 282 299 302 295 247 234 228 228 228
283 297 292 297 292 295 283 276 280 279 274 271 272 270 267 269 258 260 258 261 258 261 267 275 269 254 245 261 271 277 274 283 288 290 279 266 277 285 278 245 235 232 227
294 301 294 288 282 279 268 269 268 267 270 258 262 274 266 263 254 250 250 256 262 256 262 258 262 263 259 256 263 263 262 270 283 280 281 267 255 258 266 260 241 233 231
304 301 299 301 304 303 301 300 289 270 267 271 272 270 270 258 256 250 251 250 252 255 257 255 251 256 259 256 252 254 261 269 270 269 269 270 258 245 247 256 253 243 236
313 320 318 319 315 313 308 301 299 295 288 284 278 281 263 265 269 259 257 257 260 255 252 252 252 254 252 252 254 258 259 262 265 270 264 266 251 251 241 243 249 251 249
324 325 322 321 314 303 296 292 289 290 287 286 285 284 276 273 276 277 262 259 258 254 249 249 252 254 253 250 250 253 255 254 260 266 265 262 248 248 246 237 242 245 245
335 344 355 352 337 322 309 299 292 288 283 282 282 282 282 278 278 274 265 262 261 260 258 252 249 248 251 247 247 254 247 247 254 255 258 257 254 244 244 239 233 242 244
326 350 353 350 351 360 348 329 315 307 302 299 295 291 290 288 288 285 280 274 270 267 264 260 254 252 250 250 251 242 240 245 249 254 251 249 249 247 242 240 232 233 239
307 320 334 343 351 353 360 336 322 316 307 301 297 296 296 293 292 288 285 281 276 273 270 267 264 258 254 252 249 247 248 242 243 245 246 241 244 247 249 244 240 233 232
310 317 328 328 333 344 352 350 342 308 305 299 294 290 291 290 293 293 288 286 283 275 269 267 264 262 259 256 253 250 247 243 241 237 238 236 238 243 245 245 241 240 233
309 318 319 326 331 341 339 342 345 345 306 295 291 291 291 296 296 295 294 293 292 289 282 273 268 264 259 255 252 249 246 243 239 235 239 239 240 241 244 244 242 237 238
309 310 316 322 327 331 334 332 337 338 336 305 292 291 290 291 293 296 296 296 293 289 284 277 272 268 264 259 252 247 244 243 241 239 236 233 240 239 242 241 239 240 238
307 315 316 320 326 329 327 332 334 335 327 324 303 294 294 295 295 298 296 294 292 288 282 277 273 268 263 257 254 249 245 242 240 239 237 236 232 235 238 237 234 237 236
318 316 321 318 322 325 324 330 333 333 327 318 313 308 306 303 302 301 301 300 294 288 281 274 268 264 261 257 252 248 245 242 240 238 239 235 230 231 233 236 232 232 234
Height
10961 10960 10960 10959 10959 10959 10959 10959 10958 10957 10956 10956 10955 10954 10951 10948 10947 10943 10940 10934 10925 10928 10926 10923 10918 10914 10907 10903 10900 10897 10895 10890 10888 10890 10893 10897 10904 10907 10911 10916 10920 10924 10928
10961 10961 10960 10960 10960 10959 10959 10958 10957 10957 10955 10954 10953 10952 10950 10948 10947 10945 10941 10936 10931 10930 10932 10927 10921 10917 10913 10905 10902 10898 10894 10892 10889 10888 10892 10895 10899 10904 10909 10913 10918 10923 10927
10960 10960 10962 10961 10960 10959 10958 10957 10956 10955 10955 10953 10952 10950 10949 10947 10947 10945 10942 10939 10937 10936 10934 10928 10924 10920 10916 10911 10904 10898 10896 10892 10888 10887 10887 10892 10896 10902 10907 10910 10915 10920 10925
10961 10962 10963 10963 10961 10958 10957 10955 10954 10953 10953 10952 10951 10950 10948 10946 10945 10944 10942 10940 10938 10935 10931 10931 10926 10924 10920 10915 10908 10903 10899 10894 10891 10885 10885 10886 10892 10897 10904 10909 10913 10918 10923
10960 10961 10960 10960 10959 10958 10956 10953 10952 10951 10950 10950 10949 10948 10947 10945 10944 10944 10942 10940 10938 10934 10929 10930 10929 10928 10923 10920 10915 10907 10901 10896 10892 10885 10882 10883 10888 10892 10900 10907 10911 10917 10921
10959 10959 10958 10958 10957 10957 10954 10951 10950 10950 10950 10949 10948 10948 10945 10944 10942 10942 10941 10940 10939 10935 10931 10929 10922 10929 10928 10923 10918 10911 10904 10898 10893 10888 10884 10881 10885 10890 10897 10904 10910 10915 10919
10954 10957 10957 10957 10956 10955 10953 10951 10949 10948 10948 10947 10947 10946 10944 10943 10942 10939 10939 10938 10938 10935 10934 10928 10933 10935 10929 10923 10920 10913 10906 10901 10897 10892 10888 10885 10887 10892 10896 10902 10907 10913 10917
10956 10955 10956 10954 10953 10952 10952 10949 10947 10946 10946 10944 10944 10943 10941 10940 10939 10937 10937 10936 10935 10934 10933 10935 10937 10938 10924 10925 10914 10911 10910 10902 10899 10895 10893 10890 10890 10893 10896 10899 10903 10909 10914
10955 10954 10953 10953 10951 10948 10947 10946 10945 10944 10943 10941 10940 10938 10938 10937 10935 10933 10933 10932 10931 10930 10929 10931 10932 10933 10915 10926 10925 10925 10916 10907 10903 10898 10894 10892 10893 10894 10895 10898 10901 10905 10910
10951 10951 10949 10949 10948 10947 10943 10942 10942 10940 10939 10938 10935 10934 10933 10932 10931 10930 10928 10928 10928 10928 10926 10926 10929 10931 10930 10928 10924 10920 10912 10908 10905 10900 10895 10893 10893 10894 10896 10898 10900 10902 10906
10950 10947 10946 10945 10943 10941 10939 10937 10935 10934 10932 10930 10928 10926 10926 10924 10924 10922 10922 10921 10921 10920 10923 10923 10926 10927 10927 10923 10918 10915 10911 10908 10906 10902 10898 10895 10894 10893 10894 10898 10899 10901 10904
10944 10941 10940 10938 10936 10935 10932 10931 10928 10925 10924 10922 10922 10920 10919 10918 10916 10914 10914 10915 10914 10913 10914 10917 10919 10919 10919 10917 10915 10914 10911 10905 10903 10901 10898 10895 10892 10892 10893 10894 10897 10899 10902
10939 10936 10933 10930 10929 10927 10923 10922 10921 10918 10914 10911 10911 10911 10911 10909 10907 10906 10905 10906 10905 10905 10906 10910 10912 10909 10903 10904 10906 10904 10902 10899 10897 10896 10895 10894 10892 10891 10890 10890 10892 10895 10897
10932 10930 10927 10923 10919 10916 10911 10910 10908 10907 10904 10902 10900 10898 10900 10900 10898 10895 10893 10893 10894 10892 10895 10898 10902 10904 10897 10897 10897 10894 10892 10891 10890 10890 10890 10890 10889 10888 10887 10887 10888 10889 10892
10921 10918 10915 10912 10909 10905 10902 10901 10896 10893 10891 10889 10887 10887 10887 10886 10886 10884 10883 10881 10881 10880 10880 10883 10885 10887 10887 10888 10888 10886 10883 10883 10884 10884 10885 10884 10885 10884 10885 10884 10884 10885 10887
10911 10906 10902 10898 10894 10891 10886 10883 10880 10877 10876 10872 10871 10871 10869 10870 10869 10868 10866 10867 10868 10867 10865 10865 10867 10870 10872 10873 10875 10874 10875 10875 10876 10877 10877 10878 10878 10879 10880 10881 10880 10880 10881
10899 10894 10890 10885 10880 10874 10870 10866 10861 10860 10858 10856 10852 10850 10850 10848 10849 10850 10848 10847 10846 10849 10853 10851 10852 10854 10856 10857 10859 10860 10863 10864 10866 10867 10870 10870 10872 10873 10874 10874 10876 10876 10875
10890 10885 10879 10872 10866 10860 10854 10850 10846 10842 10840 10838 10836 10833 10831 10830 10827 10823 10822 10823 10825 10827 10829 10832 10834 10835 10839 10841 10839 10845 10849 10850 10852 10854 10857 10861 10862 10863 10865 10866 10868 10870 10870
10883 10877 10868 10861 10853 10845 10838 10834 10828 10824 10820 10819 10818 10817 10814 10811 10807 10804 10802 10802 10805 10807 10808 10808 10811 10814 10816 10822 10825 10825 10829 10834 10838 10839 10842 10847 10849 10852 10854 10856 10858 10861 10864
10874 10868 10860 10854 10846 10838 10829 10822 10817 10811 10807 10805 10804 10802 10800 10798 10795 10794 10791 10790 10788 10787 10786 10787 10789 10790 10791 10795 10797 10803 10810 10814 10819 10821 10825 10830 10835 10838 10842 10844 10847 10850 10853
10865 10860 10854 10849 10841 10833 10825 10819 10813 10809 10803 10798 10794 10790 10788 10784 10782 10781 10778 10776 10774 10772 10770 10769 10768 10767 10770 10770 10774 10777 10781 10790 10797 10800 10805 10811 10817 10821 10825 10831 10835 10838 10841
10856 10851 10847 10840 10834 10826 10820 10814 10808 10801 10796 10791 10785 10781 10776 10770 10768 10765 10762 10760 10757 10754 10752 10750 10749 10748 10748 10749 10750 10752 10756 10764 10772 10773 10779 10789 10795 10800 10806 10813 10820 10824 10828
10849 10845 10839 10834 10826 10818 10811 10806 10800 10793 10783 10777 10771 10765 10762 10754 10747 10745 10740 10738 10735 10730 10729 10726 10724 10723 10724 10726 10727 10729 10731 10736 10742 10747 10758 10765 10771 10780 10787 10794 10801 10807 10812
10841 10835 10830 10823 10816 10807 10799 10792 10787 10779 10770 10761 10754 10749 10742 10739 10728 10725 10718 10711 10706 10702 10699 10696 10695 10692 10694 10695 10698 10701 10705 10710 10714 10719 10730 10740 10746 10756 10764 10773 10781 10787 10793
10831 10825 10818 10811 10803 10794 10786 10778 10768 10762 10753 10745 10737 10731 10725 10718 10709 10703 10695 10687 10677 10668 10664 10661 10655 10655 10656 10662 10663 10669 10675 10682 10686 10691 10700 10711 10720 10729 10740 10749 10757 10765 10774
10820 10813 10806 10799 10790 10780 10773 10763 10752 10745 10737 10728 10719 10711 10704 10690 10685 10678 10666 10653 10641 10630 10621 10617 10617 10615 10617 10622 10627 10635 10641 10649 10656 10663 10667 10683 10690 10702 10712 10721 10733 10743 10751